Location: Palomar Mountain Lodge
(33.3110°N, 116.8495°W)
Time: 04:54:46
(UTC-07:00)

Meteor 2-10 Rocket - Pass Details

Date: 12 July 2018
Orbit: 734 x 885 km, 81.2° (Epoch: 21 July)

Event Time Altitude Azimuth Distance (km) Brightness Sun altitude
Rises 21:08:43 0° 0° (N) 3,369 7.4 -13.2°
Reaches altitude 10° 21:11:14 10° 8° (N) 2,455 6.5 -13.6°
Maximum altitude 21:16:30 41° 78° (ENE) 1,216 4.2 -14.5°
Enters shadow 21:19:45 22° 136° (SE) 1,804 4.8 -15.0°
